Terminal Aerodrome Forecast
Issued by NWS

Home | Current Version | Previous Version | Text Only | Print | Product List | Glossary On
Versions: 1 2 3 4 5 6 7 8 9 10 11 12 13 14 15 16 17 18 19 20 21 22 23 24
000
FTUS43 KAPX 030659 RRA
TAFMBL
TAF
KMBL 030659Z 0307/0406 VRB03KT P6SM SKC
     FM030700 16004KT P6SM OVC090
     FM031100 14011KT 6SM -SN OVC035
     FM031500 14013KT 1SM -SN OVC009
     FM040000 28010KT P6SM OVC100
      AMD LTD TO CLD VIS AND WIND=

USA.gov is the U.S. government's official web portal to all federal, state and local government web resources and services.